| time (UTC) | temp F | wind direction | speed MPH | gust MPH | rain 1hr in | rain 24hr in | rain mn in | humidity % | barometer mb |
| 20260503040407 | 56 | 287 | 0.0 | 3.0 | 0.02 | 0.03 | 0.03 | 71 | 1015.6 |
| 20260503035907 | 56 | 288 | 0.0 | 0.0 | 0.01 | 0.02 | 0.03 | 72 | 1015.7 |
| 20260503035408 | 57 | 288 | 0.0 | 0.0 | 0.01 | 0.02 | 0.02 | 71 | 1015.7 |
| 20260503034906 | 57 | 288 | 0.0 | 2.0 | 0.01 | 0.02 | 0.02 | 71 | 1015.6 |
| 20260503034404 | 57 | 288 | 0.0 | 4.0 | 0.00 | 0.01 | 0.02 | 68 | 1015.7 |
| 20260503033901 | 57 | 288 | 1.0 | 4.0 | 0.00 | 0.01 | 0.01 | 66 | 1015.7 |
| 20260503033359 | 58 | 287 | 1.0 | 4.0 | 0.00 | 0.01 | 0.01 | 66 | 1015.8 |
| 20260503032858 | 58 | 287 | 1.0 | 4.0 | 0.00 | 0.01 | 0.01 | 64 | 1015.7 |
| 20260503032358 | 58 | 287 | 1.0 | 4.0 | 0.00 | 0.01 | 0.01 | 60 | 1015.5 |
| 20260503031858 | 58 | 287 | 1.0 | 4.0 | 0.00 | 0.01 | 0.01 | 59 | 1015.2 |
| 20260503031358 | 58 | 287 | 1.0 | 4.0 | 0.00 | 0.01 | 0.01 | 60 | 1015.0 |
| 20260503031335 | 58 | 287 | 0.0 | 3.0 | 0.00 | 0.01 | 0.01 | 60 | 1014.8 |
| 20260503030345 | 58 | 287 | 1.0 | 4.0 | 0.00 | 0.01 | 0.01 | 59 | 1014.6 |
| 20260503025845 | 58 | 287 | 3.0 | 7.0 | 0.00 | 0.01 | 0.01 | 59 | 1014.3 |
| 20260503025346 | 59 | 287 | 3.0 | 7.0 | 0.00 | 0.01 | 0.01 | 59 | 1014.4 |
| 20260503024845 | 59 | 288 | 3.0 | 9.0 | 0.00 | 0.01 | 0.01 | 58 | 1014.4 |
| 20260503024605 | 59 | 288 | 4.0 | 9.0 | 0.00 | 0.01 | 0.01 | 58 | 1014.4 |
| 20260503023845 | 60 | 289 | 3.0 | 5.0 | 0.00 | 0.01 | 0.01 | 57 | 1014.4 |
| 20260503023344 | 60 | 290 | 3.0 | 7.0 | 0.00 | 0.01 | 0.01 | 55 | 1014.3 |
| 20260503022844 | 60 | 290 | 3.0 | 7.0 | 0.00 | 0.01 | 0.01 | 55 | 1014.2 |
| 20260503022608 | 60 | 288 | 3.0 | 5.0 | 0.00 | 0.01 | 0.01 | 56 | 1014.2 |
| 20260503021841 | 60 | 288 | 3.0 | 4.0 | 0.00 | 0.01 | 0.01 | 58 | 1014.1 |
| 20260503021341 | 60 | 288 | 1.0 | 4.0 | 0.00 | 0.01 | 0.01 | 57 | 1014.0 |
| 20260503020840 | 60 | 288 | 0.0 | 3.0 | 0.00 | 0.01 | 0.01 | 58 | 1014.0 |
| 20260503020340 | 60 | 288 | 0.0 | 2.0 | 0.00 | 0.01 | 0.01 | 60 | 1014.1 |
| 20260503015840 | 60 | 288 | 0.0 | 2.0 | 0.01 | 0.01 | 0.01 | 59 | 1014.1 |
| 20260503015338 | 60 | 288 | 0.0 | 1.0 | 0.01 | 0.01 | 0.01 | 60 | 1014.1 |
| 20260503014839 | 60 | 288 | 1.0 | 5.0 | 0.01 | 0.01 | 0.01 | 60 | 1014.0 |
| 20260503014333 | 60 | 288 | 4.0 | 7.0 | 0.01 | 0.01 | 0.01 | 60 | 1014.0 |
| 20260503013833 | 60 | 288 | 5.0 | 8.0 | 0.01 | 0.01 | 0.01 | 60 | 1014.0 |
| 20260503013331 | 60 | 291 | 3.0 | 8.0 | 0.01 | 0.01 | 0.01 | 59 | 1014.1 |
| 20260503012831 | 60 | 292 | 3.0 | 8.0 | 0.01 | 0.01 | 0.01 | 61 | 1014.2 |
| 20260503012816 | 61 | 292 | 5.0 | 11.0 | 0.01 | 0.01 | 0.01 | 59 | 1014.3 |
| 20260503011829 | 61 | 289 | 5.0 | 11.0 | 0.01 | 0.01 | 0.01 | 58 | 1014.3 |
| 20260503011327 | 61 | 295 | 4.0 | 10.0 | 0.01 | 0.01 | 0.01 | 59 | 1014.4 |
| 20260503010828 | 62 | 288 | 4.0 | 9.0 | 0.01 | 0.01 | 0.01 | 58 | 1014.4 |
| 20260503010328 | 62 | 121 | 2.0 | 6.0 | 0.01 | 0.01 | 0.01 | 62 | 1014.4 |
| 20260503005828 | 63 | 107 | 0.0 | 4.0 | 0.00 | 0.00 | 0.00 | 58 | 1014.7 |
| 20260503005326 | 63 | 118 | 2.0 | 9.0 | 0.00 | 0.00 | 0.00 | 51 | 1014.8 |
| 20260503004826 | 64 | 69 | 4.0 | 10.0 | 0.00 | 0.00 | 0.00 | 50 | 1014.9 |
| 20260503004324 | 65 | 86 | 3.0 | 10.0 | 0.00 | 0.00 | 0.00 | 47 | 1014.9 |
| 20260503003824 | 66 | 55 | 1.0 | 8.0 | 0.00 | 0.00 | 0.00 | 39 | 1014.6 |
| 20260503003321 | 66 | 260 | 2.0 | 6.0 | 0.00 | 0.00 | 0.00 | 36 | 1014.3 |
| 20260503002819 | 67 | 261 | 2.0 | 4.0 | 0.00 | 0.00 | 0.00 | 36 | 1013.9 |
| 20260503002318 | 67 | 261 | 2.0 | 5.0 | 0.00 | 0.00 | 0.00 | 35 | 1013.4 |
| 20260503001811 | 67 | 291 | 1.0 | 5.0 | 0.00 | 0.00 | 0.00 | 34 | 1013.3 |
| 20260503001529 | 68 | 288 | 1.0 | 4.0 | 0.00 | 0.00 | 0.00 | 33 | 1013.2 |
| 20260503000812 | 68 | 288 | 1.0 | 3.0 | 0.00 | 0.00 | 0.00 | 33 | 1013.3 |
| 20260503000311 | 68 | 287 | 1.0 | 3.0 | 0.00 | 0.00 | 0.00 | 32 | 1013.3 |
| 20260502235813 | 68 | 287 | 1.0 | 3.0 | 0.00 | 0.00 | 0.00 | 32 | 1013.2 |
| 20260502235311 | 68 | 286 | 1.0 | 4.0 | 0.00 | 0.00 | 0.00 | 33 | 1013.2 |
| 20260502234812 | 69 | 286 | 3.0 | 8.0 | 0.00 | 0.00 | 0.00 | 32 | 1013.3 |
| 20260502234312 | 69 | 286 | 5.0 | 11.0 | 0.00 | 0.00 | 0.00 | 31 | 1013.0 |
| 20260502233811 | 69 | 288 | 6.0 | 12.0 | 0.00 | 0.00 | 0.00 | 31 | 1012.6 |
| 20260502233320 | 69 | 291 | 7.0 | 12.0 | 0.00 | 0.00 | 0.00 | 31 | 1012.6 |
| 20260502232812 | 70 | 290 | 8.0 | 14.0 | 0.00 | 0.00 | 0.00 | 30 | 1012.5 |
| 20260502232312 | 71 | 294 | 7.0 | 14.0 | 0.00 | 0.00 | 0.00 | 30 | 1012.5 |
| 20260502231811 | 71 | 287 | 7.0 | 15.0 | 0.00 | 0.00 | 0.00 | 29 | 1012.5 |
| 20260502231312 | 72 | 290 | 6.0 | 15.0 | 0.00 | 0.00 | 0.00 | 29 | 1012.5 |
| 20260502230811 | 73 | 299 | 6.0 | 13.0 | 0.00 | 0.00 | 0.00 | 29 | 1012.6 |
| 20260502230306 | 74 | 294 | 5.0 | 13.0 | 0.00 | 0.00 | 0.00 | 27 | 1012.6 |
| 20260502225800 | 74 | 206 | 2.0 | 7.0 | 0.00 | 0.00 | 0.00 | 24 | 1012.6 |
| 20260502225742 | 74 | 149 | 1.0 | 6.0 | 0.00 | 0.00 | 0.00 | 24 | 1012.6 |
| 20260502224754 | 74 | 150 | 1.0 | 6.0 | 0.00 | 0.00 | 0.00 | 24 | 1012.7 |
| 20260502224252 | 74 | 150 | 2.0 | 7.0 | 0.00 | 0.00 | 0.00 | 24 | 1012.7 |
| 20260502223752 | 74 | 150 | 2.0 | 7.0 | 0.00 | 0.00 | 0.00 | 25 | 1012.9 |
| 20260502223251 | 74 | 150 | 2.0 | 6.0 | 0.00 | 0.00 | 0.00 | 24 | 1012.9 |
| 20260502222749 | 74 | 150 | 3.0 | 8.0 | 0.00 | 0.00 | 0.00 | 24 | 1012.9 |
| 20260502222250 | 74 | 153 | 3.0 | 8.0 | 0.00 | 0.00 | 0.00 | 24 | 1012.9 |
| 20260502221749 | 73 | 145 | 3.0 | 9.0 | 0.00 | 0.00 | 0.00 | 23 | 1012.9 |
| 20260502221249 | 72 | 133 | 4.0 | 9.0 | 0.00 | 0.00 | 0.00 | 24 | 1013.0 |
| 20260502221229 | 72 | 150 | 4.0 | 11.0 | 0.00 | 0.00 | 0.00 | 23 | 1013.1 |
| 20260502220248 | 72 | 153 | 3.0 | 11.0 | 0.00 | 0.00 | 0.00 | 22 | 1013.2 |
| 20260502220233 | 72 | 126 | 4.0 | 16.0 | 0.00 | 0.00 | 0.00 | 22 | 1013.2 |
| 20260502215248 | 72 | 132 | 5.0 | 16.0 | 0.00 | 0.00 | 0.00 | 22 | 1013.4 |
| 20260502214748 | 73 | 113 | 3.0 | 11.0 | 0.00 | 0.00 | 0.00 | 22 | 1013.5 |
| 20260502214510 | 73 | 115 | 2.0 | 6.0 | 0.00 | 0.00 | 0.00 | 23 | 1013.6 |
| 20260502213744 | 73 | 101 | 2.0 | 6.0 | 0.00 | 0.00 | 0.00 | 24 | 1013.8 |
| 20260502213242 | 72 | 136 | 2.0 | 7.0 | 0.00 | 0.00 | 0.00 | 25 | 1013.8 |
| 20260502212740 | 72 | 138 | 1.0 | 7.0 | 0.00 | 0.00 | 0.00 | 25 | 1013.9 |
| 20260502212240 | 72 | 116 | 1.0 | 6.0 | 0.00 | 0.00 | 0.00 | 25 | 1013.9 |
| 20260502211740 | 72 | 115 | 2.0 | 6.0 | 0.00 | 0.00 | 0.00 | 25 | 1014.0 |
| 20260502211239 | 72 | 118 | 1.0 | 6.0 | 0.00 | 0.00 | 0.00 | 25 | 1014.0 |
| 20260502210741 | 72 | 117 | 1.0 | 6.0 | 0.00 | 0.00 | 0.00 | 25 | 1014.0 |
| 20260502210503 | 72 | 117 | 2.0 | 7.0 | 0.00 | 0.00 | 0.00 | 25 | 1014.0 |
| 20260502210015 | 72 | 115 | 2.0 | 7.0 | 0.00 | 0.00 | 0.00 | 25 | 1014.1 |
| 20260502205240 | 72 | 146 | 1.0 | 7.0 | 0.00 | 0.00 | 0.00 | 25 | 1014.1 |
| 20260502204740 | 72 | 147 | 2.0 | 7.0 | 0.00 | 0.00 | 0.00 | 24 | 1014.1 |
| 20260502204240 | 73 | 146 | 3.0 | 8.0 | 0.00 | 0.00 | 0.00 | 24 | 1014.2 |
| 20260502203738 | 73 | 147 | 3.0 | 9.0 | 0.00 | 0.00 | 0.00 | 24 | 1014.1 |
| 20260502203718 | 73 | 53 | 3.0 | 10.0 | 0.00 | 0.00 | 0.00 | 24 | 1014.2 |
| 20260502202736 | 73 | 142 | 3.0 | 10.0 | 0.00 | 0.00 | 0.00 | 23 | 1014.1 |
| 20260502202238 | 73 | 109 | 3.0 | 10.0 | 0.00 | 0.00 | 0.00 | 23 | 1014.2 |
| 20260502202214 | 74 | 129 | 3.0 | 10.0 | 0.00 | 0.00 | 0.00 | 22 | 1014.2 |
| 20260502201233 | 74 | 101 | 4.0 | 10.0 | 0.00 | 0.00 | 0.00 | 23 | 1014.2 |
| 20260502200959 | 74 | 150 | 4.0 | 11.0 | 0.00 | 0.00 | 0.00 | 23 | 1014.3 |
| 20260502200232 | 74 | 139 | 4.0 | 11.0 | 0.00 | 0.00 | 0.00 | 23 | 1014.3 |
| 20260502195731 | 74 | 129 | 3.0 | 10.0 | 0.00 | 0.00 | 0.00 | 23 | 1014.3 |
| 20260502195451 | 74 | 66 | 2.0 | 8.0 | 0.00 | 0.00 | 0.00 | 23 | 1014.2 |
| 20260502194732 | 75 | 118 | 2.0 | 7.0 | 0.00 | 0.00 | 0.00 | 23 | 1014.3 |
| 20260502194454 | 74 | 94 | 2.0 | 7.0 | 0.00 | 0.00 | 0.00 | 23 | 1014.3 |
| 20260502193730 | 74 | 116 | 3.0 | 9.0 | 0.00 | 0.00 | 0.00 | 22 | 1014.4 |
| 20260502193229 | 74 | 104 | 4.0 | 9.0 | 0.00 | 0.00 | 0.00 | 23 | 1014.4 |
| 20260502192730 | 74 | 73 | 4.0 | 9.0 | 0.00 | 0.00 | 0.00 | 22 | 1014.4 |
| 20260502192230 | 74 | 96 | 4.0 | 8.0 | 0.00 | 0.00 | 0.00 | 22 | 1014.4 |
| 20260502191730 | 75 | 75 | 4.0 | 8.0 | 0.00 | 0.00 | 0.00 | 22 | 1014.4 |
| 20260502191449 | 75 | 84 | 4.0 | 10.0 | 0.00 | 0.00 | 0.00 | 22 | 1014.6 |
| 20260502190726 | 75 | 84 | 4.0 | 10.0 | 0.00 | 0.00 | 0.00 | 22 | 1014.6 |
| 20260502190220 | 75 | 69 | 3.0 | 9.0 | 0.00 | 0.00 | 0.00 | 22 | 1014.7 |
| 20260502185720 | 75 | 105 | 4.0 | 9.0 | 0.00 | 0.00 | 0.00 | 22 | 1014.6 |
| 20260502185220 | 76 | 113 | 4.0 | 9.0 | 0.00 | 0.00 | 0.00 | 22 | 1014.7 |
| 20260502184720 | 75 | 66 | 3.0 | 9.0 | 0.00 | 0.00 | 0.00 | 23 | 1014.7 |
| 20260502184219 | 75 | 88 | 3.0 | 10.0 | 0.00 | 0.00 | 0.00 | 22 | 1014.8 |
| 20260502183717 | 74 | 142 | 4.0 | 10.0 | 0.00 | 0.00 | 0.00 | 23 | 1014.8 |
| 20260502183441 | 74 | 155 | 3.0 | 8.0 | 0.00 | 0.00 | 0.00 | 23 | 1014.9 |
| 20260502183159 | 73 | 116 | 3.0 | 8.0 | 0.00 | 0.00 | 0.00 | 25 | 1014.9 |
| 20260502182218 | 73 | 103 | 2.0 | 8.0 | 0.00 | 0.00 | 0.00 | 24 | 1015.0 |
| 20260502181715 | 73 | 78 | 2.0 | 4.0 | 0.00 | 0.00 | 0.00 | 24 | 1015.0 |
| 20260502181443 | 72 | 113 | 1.0 | 6.0 | 0.00 | 0.00 | 0.00 | 26 | 1015.0 |
| 20260502180716 | 72 | 113 | 1.0 | 6.0 | 0.00 | 0.00 | 0.00 | 26 | 1015.1 |
| 20260502180216 | 71 | 115 | 1.0 | 4.0 | 0.00 | 0.00 | 0.00 | 25 | 1015.1 |
| 20260502180201 | 72 | 115 | 1.0 | 3.0 | 0.00 | 0.00 | 0.00 | 25 | 1015.2 |
| 20260502170201 | 68 | 113 | 0.0 | 2.0 | 0.00 | 0.00 | 0.00 | 26 | 1015.5 |
| 20260502164200 | 67 | 113 | 1.0 | 2.0 | 0.00 | 0.00 | 0.00 | 25 | 1015.5 |
| 20260502163700 | 67 | 113 | 0.0 | 2.0 | 0.00 | 0.00 | 0.00 | 26 | 1015.5 |
| 20260502163159 | 66 | 113 | 0.0 | 2.0 | 0.00 | 0.00 | 0.00 | 28 | 1015.6 |
| 20260502162658 | 65 | 113 | 0.0 | 1.0 | 0.00 | 0.00 | 0.00 | 29 | 1015.6 |
| 20260502162637 | 65 | 113 | 0.0 | 1.0 | 0.00 | 0.00 | 0.00 | 30 | 1015.6 |
| 20260502161658 | 64 | 113 | 1.0 | 2.0 | 0.00 | 0.00 | 0.00 | 34 | 1015.6 |
| 20260502161158 | 63 | 113 | 1.0 | 4.0 | 0.00 | 0.00 | 0.00 | 33 | 1015.6 |
| 20260502160658 | 64 | 113 | 0.0 | 4.0 | 0.00 | 0.00 | 0.00 | 35 | 1015.7 |
| 20260502160156 | 63 | 113 | 0.0 | 1.0 | 0.00 | 0.00 | 0.00 | 36 | 1015.7 |
| 20260502152149 | 56 | 113 | 0.0 | 2.0 | 0.00 | 0.00 | 0.00 | 46 | 1015.7 |
| 20260502151907 | 55 | 113 | 0.0 | 1.0 | 0.00 | 0.00 | 0.00 | 46 | 1015.8 |
| 20260502151148 | 54 | 113 | 0.0 | 1.0 | 0.00 | 0.00 | 0.00 | 45 | 1015.8 |
| 20260502150649 | 53 | 113 | 0.0 | 1.0 | 0.00 | 0.00 | 0.00 | 47 | 1015.7 |
| 20260502150148 | 53 | 113 | 0.0 | 1.0 | 0.00 | 0.00 | 0.00 | 46 | 1015.7 |
| 20260502130332 | 47 | 113 | 0.0 | 0.0 | 0.00 | 0.00 | 0.00 | 59 | 1014.9 |
| 20260502123612 | 47 | 113 | 0.0 | 0.0 | 0.00 | 0.00 | 0.00 | 57 | 1014.8 |
| 20260502123336 | 47 | 113 | 0.0 | 0.0 | 0.00 | 0.00 | 0.00 | 57 | 1014.8 |
| 20260502122609 | 47 | 113 | 0.0 | 0.0 | 0.00 | 0.00 | 0.00 | 55 | 1014.8 |
| 20260502122108 | 47 | 113 | 0.0 | 0.0 | 0.00 | 0.00 | 0.00 | 55 | 1014.8 |
| 20260502121832 | 47 | 113 | 0.0 | 0.0 | 0.00 | 0.00 | 0.00 | 56 | 1014.7 |
| 20260502121109 | 47 | 113 | 0.0 | 0.0 | 0.00 | 0.00 | 0.00 | 55 | 1014.7 |
| 20260502120602 | 47 | 113 | 0.0 | 0.0 | 0.00 | 0.00 | 0.00 | 55 | 1014.7 |
| 20260502115822 | 48 | 113 | 0.0 | 0.0 | 0.00 | 0.00 | 0.00 | 51 | 1014.7 |
| 20260502115320 | 48 | 113 | 0.0 | 0.0 | 0.00 | 0.00 | 0.00 | 52 | 1014.6 |
| 20260502115048 | 48 | 113 | 0.0 | 0.0 | 0.00 | 0.00 | 0.00 | 52 | 1014.7 |
| 20260502114054 | 48 | 113 | 0.0 | 0.0 | 0.00 | 0.00 | 0.00 | 52 | 1014.7 |
| 20260502113552 | 48 | 113 | 0.0 | 0.0 | 0.00 | 0.00 | 0.00 | 51 | 1014.8 |
| 20260502113050 | 49 | 113 | 0.0 | 0.0 | 0.00 | 0.00 | 0.00 | 49 | 1014.7 |
| 20260502112547 | 49 | 113 | 0.0 | 0.0 | 0.00 | 0.00 | 0.00 | 48 | 1014.7 |
| 20260502112045 | 49 | 113 | 0.0 | 0.0 | 0.00 | 0.00 | 0.00 | 48 | 1014.7 |
| 20260502111800 | 49 | 113 | 0.0 | 0.0 | 0.00 | 0.00 | 0.00 | 48 | 1014.7 |
| 20260502111044 | 49 | 113 | 0.0 | 0.0 | 0.00 | 0.00 | 0.00 | 48 | 1014.7 |
| 20260502111032 | 49 | 113 | 0.0 | 0.0 | 0.00 | 0.00 | 0.00 | 47 | 1014.7 |
| 20260502110043 | 50 | 113 | 0.0 | 0.0 | 0.00 | 0.00 | 0.00 | 48 | 1014.7 |
| 20260502105806 | 50 | 113 | 0.0 | 0.0 | 0.00 | 0.00 | 0.00 | 49 | 1014.7 |
| 20260502105041 | 50 | 113 | 0.0 | 0.0 | 0.00 | 0.00 | 0.00 | 47 | 1014.7 |
| 20260502104542 | 50 | 113 | 0.0 | 0.0 | 0.00 | 0.00 | 0.00 | 47 | 1014.6 |
| 20260502104043 | 51 | 113 | 0.0 | 0.0 | 0.00 | 0.00 | 0.00 | 47 | 1014.6 |
| 20260502103541 | 51 | 113 | 0.0 | 0.0 | 0.00 | 0.00 | 0.00 | 48 | 1014.6 |
| 20260502103040 | 51 | 113 | 0.0 | 0.0 | 0.00 | 0.00 | 0.00 | 46 | 1014.6 |
| 20260502102540 | 51 | 113 | 0.0 | 0.0 | 0.00 | 0.00 | 0.00 | 46 | 1014.6 |
| 20260502102037 | 51 | 113 | 0.0 | 0.0 | 0.00 | 0.00 | 0.00 | 45 | 1014.4 |
| 20260502102015 | 51 | 113 | 0.0 | 0.0 | 0.00 | 0.00 | 0.00 | 45 | 1014.4 |
| 20260502101034 | 51 | 113 | 0.0 | 0.0 | 0.00 | 0.00 | 0.00 | 45 | 1014.4 |
| 20260502100531 | 51 | 113 | 0.0 | 0.0 | 0.00 | 0.00 | 0.00 | 45 | 1014.3 |
| 20260502091520 | 53 | 113 | 0.0 | 0.0 | 0.00 | 0.00 | 0.00 | 37 | 1014.8 |
| 20260502091020 | 53 | 113 | 0.0 | 0.0 | 0.00 | 0.00 | 0.00 | 37 | 1014.8 |
| 20260502090516 | 54 | 113 | 0.0 | 0.0 | 0.00 | 0.00 | 0.00 | 37 | 1014.9 |
| 20260502071437 | 59 | 113 | 0.0 | 1.0 | 0.00 | 0.00 | 0.00 | 22 | 1015.5 |
| 20260502071201 | 59 | 113 | 0.0 | 1.0 | 0.00 | 0.00 | 0.00 | 23 | 1015.5 |
| 20260502070432 | 60 | 113 | 0.0 | 1.0 | 0.00 | 0.00 | 0.00 | 21 | 1015.5 |
| 20260502065933 | 60 | 113 | 0.0 | 1.0 | 0.00 | 0.00 | 0.00 | 21 | 1015.5 |
| 20260502065653 | 60 | 113 | 0.0 | 0.0 | 0.00 | 0.00 | 0.00 | 21 | 1015.4 |
| 20260502064919 | 61 | 113 | 0.0 | 0.0 | 0.00 | 0.00 | 0.00 | 21 | 1015.4 |
| 20260502064413 | 61 | 113 | 0.0 | 0.0 | 0.00 | 0.00 | 0.00 | 19 | 1015.2 |
| 20260502064127 | 61 | 113 | 0.0 | 1.0 | 0.00 | 0.00 | 0.00 | 18 | 1015.2 |
| 20260502063402 | 62 | 113 | 0.0 | 1.0 | 0.00 | 0.00 | 0.00 | 18 | 1015.2 |
| 20260502062856 | 62 | 113 | 0.0 | 0.0 | 0.00 | 0.00 | 0.00 | 18 | 1015.2 |
| 20260502062349 | 63 | 113 | 0.0 | 0.0 | 0.00 | 0.00 | 0.00 | 19 | 1015.2 |
| 20260502061843 | 63 | 113 | 0.0 | 1.0 | 0.00 | 0.00 | 0.00 | 17 | 1015.2 |
| 20260502061340 | 63 | 113 | 0.0 | 1.0 | 0.00 | 0.00 | 0.00 | 17 | 1015.2 |
| 20260502061053 | 64 | 113 | 0.0 | 0.0 | 0.00 | 0.00 | 0.00 | 17 | 1015.4 |
| 20260502060326 | 64 | 113 | 0.0 | 2.0 | 0.00 | 0.00 | 0.00 | 16 | 1015.2 |
| 20260502055820 | 64 | 113 | 0.0 | 2.0 | 0.00 | 0.00 | 0.00 | 15 | 1015.2 |
| 20260502055315 | 65 | 113 | 0.0 | 1.0 | 0.00 | 0.00 | 0.00 | 15 | 1015.2 |
| 20260502055024 | 65 | 113 | 0.0 | 2.0 | 0.00 | 0.00 | 0.00 | 15 | 1015.4 |
| 20260502054302 | 65 | 113 | 1.0 | 2.0 | 0.00 | 0.00 | 0.00 | 15 | 1015.2 |
| 20260502053755 | 65 | 113 | 1.0 | 2.0 | 0.00 | 0.00 | 0.00 | 15 | 1015.2 |
| 20260502053251 | 65 | 113 | 0.0 | 2.0 | 0.00 | 0.00 | 0.00 | 15 | 1015.5 |
| 20260502052743 | 65 | 113 | 0.0 | 2.0 | 0.00 | 0.00 | 0.00 | 15 | 1015.4 |
| 20260502052238 | 65 | 113 | 1.0 | 3.0 | 0.00 | 0.00 | 0.00 | 16 | 1015.4 |
| 20260502051954 | 65 | 113 | 1.0 | 4.0 | 0.00 | 0.00 | 0.00 | 15 | 1015.5 |
| 20260502051226 | 65 | 113 | 1.0 | 6.0 | 0.00 | 0.00 | 0.00 | 15 | 1015.4 |
| 20260502050719 | 65 | 112 | 2.0 | 8.0 | 0.00 | 0.00 | 0.00 | 15 | 1015.2 |
| 20260502050213 | 65 | 102 | 1.0 | 8.0 | 0.00 | 0.00 | 0.00 | 15 | 1015.2 |
| 20260502045708 | 65 | 74 | 0.0 | 1.0 | 0.00 | 0.00 | 0.00 | 15 | 1015.2 |
| 20260502045202 | 66 | 74 | 0.0 | 1.0 | 0.00 | 0.00 | 0.00 | 15 | 1015.2 |
| 20260502044657 | 66 | 74 | 0.0 | 1.0 | 0.00 | 0.00 | 0.00 | 15 | 1015.2 |
| 20260502044149 | 66 | 74 | 0.0 | 1.0 | 0.00 | 0.00 | 0.00 | 14 | 1015.1 |
| 20260502043644 | 66 | 74 | 1.0 | 3.0 | 0.00 | 0.00 | 0.00 | 13 | 1015.0 |
| 20260502043138 | 67 | 74 | 1.0 | 3.0 | 0.00 | 0.00 | 0.00 | 13 | 1015.0 |
| 20260502042632 | 67 | 74 | 1.0 | 4.0 | 0.00 | 0.00 | 0.00 | 13 | 1014.9 |
| 20260502042616 | 67 | 74 | 2.0 | 5.0 | 0.00 | 0.00 | 0.00 | 13 | 1015.0 |
| 20260502041620 | 67 | 74 | 2.0 | 7.0 | 0.00 | 0.00 | 0.00 | 12 | 1014.9 |
| 20260502041114 | 67 | 74 | 2.0 | 7.0 | 0.00 | 0.00 | 0.00 | 13 | 1014.9 |